Regional Weather Roundup
Issued by NWS

Home | Current Version | Previous Version | Graphics & Text | Print | Product List | Glossary On
Versions: 1 2 3 4 5 6 7 8 9 10 11 12 13 14 15 16 17 18 19 20 21 22 23 24 25 26 27 28 29 30 31 32 33 34 35 36 37 38 39 40 41 42 43 44 45 46 47 48 49 50
000
ASUS43 KLSX 211807
RWRMO

WEATHER SUMMARY FOR MISSOURI
NATIONAL WEATHER SERVICE SPRINGFIELD MO
1200 PM CST TUE NOV 21 2017

NOTE: "FAIR" INDICATES FEW OR NO CLOUDS BELOW 12,000 FEET WITH NO
       SIGNIFICANT WEATHER AND/OR OBSTRUCTIONS TO VISIBILITY.
       CURRENT SKY AND/OR WEATHER CONDITIONS ARE NOT AVAILABLE FOR
       CHILLICOTHE AND FARMINGTON.

MOZ001>031-035>038-043-044-053-054-211900-
...NORTHERN AND WESTERN MISSOURI...

CITY           SKY/WX    TMP DP  RH WIND       PRES   REMARKS
KANSAS CTY INT MOSUNNY   48  24  39 N23G31    30.10R
6HR MIN TEMP:  46; 6HR MAX TEMP:  50;

KANSAS C DTWN  MOSUNNY   50  26  39 N16G26    30.09R
6HR MIN TEMP:  48; 6HR MAX TEMP:  52;

LEE`S SUMMIT   MOSUNNY   51  31  46 N23G31    30.08R
6HR MIN TEMP:  46; 6HR MAX TEMP:  51;

ST JOSEPH      SUNNY     48  19  31 N23G32    30.13R
6HR MIN TEMP:  39; 6HR MAX TEMP:  49;

CHILLICOTHE      N/A     50  22  33 N9G24     30.07R
6HR MIN TEMP:  37; 6HR MAX TEMP:  50;

KIRKSVILLE     CLOUDY    44  22  41 NW15G28   30.03R
6HR MIN TEMP:  42; 6HR MAX TEMP:  46;


$$
MOZ066>068-077>081-088>096-101>105-211900-
...SOUTHWEST MISSOURI...

CITY           SKY/WX    TMP DP  RH WIND       PRES   REMARKS
SPRINGFIELD    CLOUDY    53  36  52 N15       29.98F
6HR MIN TEMP:  42; 6HR MAX TEMP:  54;

JOPLIN         CLOUDY    54  38  54 N9        30.04R
6HR MIN TEMP:  45; 6HR MAX TEMP:  54;

BRANSON        PTSUNNY   57  36  44 W7        29.99R

$$
MOZ032>034-039>042-045>050-055>058-069>072-211900-
...CENTRAL MISSOURI...

CITY           SKY/WX    TMP DP  RH WIND       PRES   REMARKS
COLUMBIA       PTSUNNY   52  32  46 N17       29.99R
6HR MIN TEMP:  39; 6HR MAX TEMP:  52;

JEFFERSON CITY CLOUDY    54  31  41 N8        29.99F
6HR MIN TEMP:  43; 6HR MAX TEMP:  54;

ROLLA          PTSUNNY   53  34  48 NW9       29.99R
6HR MIN TEMP:  42; 6HR MAX TEMP:  53;

SEDALIA        PTSUNNY   54  34  46 N17G26    30.03R
6HR MIN TEMP:  47; 6HR MAX TEMP:  55;

WHITEMAN AFB   PTSUNNY   50  30  46 N16       30.00R
WARRENSBURG    CLOUDY    50  30  46 NW17G23   30.05R
OSAGE BEACH    CLOUDY    54  33  45 VRB7      30.01R

$$
MOZ051-052-059>065-211900-
...EAST CENTRAL MISSOURI...

CITY           SKY/WX    TMP DP  RH WIND       PRES   REMARKS
ST LOUIS INTL  CLOUDY    54  35  48 NW10      29.96R
6HR MIN TEMP:  44; 6HR MAX TEMP:  55;

SPIRIT OF STL  CLOUDY    56  35  45 NW13      29.94S
6HR MIN TEMP:  46; 6HR MAX TEMP:  56;

ST CHARLES     CLOUDY    55  33  43 NW9       29.95R
6HR MIN TEMP:  33; 6HR MAX TEMP:  55;


$$
MOZ072>076-082>087-097>100-106>115-211900-
...SOUTH CENTRAL AND SOUTHEAST MISSOURI...

CITY           SKY/WX    TMP DP  RH WIND       PRES   REMARKS
CAPE GIRARDEAU SUNNY     54  37  52 SW15      29.97F
6HR MIN TEMP:  37; 6HR MAX TEMP:  54;

FARMINGTON     SUNNY     56  34  43 NW13      29.96S
6HR MIN TEMP:  36; 6HR MAX TEMP:  57;

POPLAR BLUFF   MOSUNNY   54  37  52 SW10      29.98F
6HR MIN TEMP:  33; 6HR MAX TEMP:  54;

WEST PLAINS    CLOUDY    56  34  43 W9        29.98S
6HR MIN TEMP:  37; 6HR MAX TEMP:  56;


$$



USA.gov is the U.S. government's official web portal to all federal, state and local government web resources and services.